This is the latest recevied weather packets stored in our database for station/object K0CVS. If no packets are shown the sender has not sent any weather packets the latest 10 day(s).
| Time | Temp. | Humidity | Pressure | Rain* | Wind** | Luminosity | Snow |
|---|---|---|---|---|---|---|---|
| 1778105358 | 15.56° C | 32% | 1017.4 hPa | 0 mm | - | 30 W/m² | - |
| 1778105053 | 15.56° C | 33% | 1017.6 hPa | 0 mm | - | 31 W/m² | - |
| 1778104750 | 15.56° C | 33% | 1017.5 hPa | 0 mm | - | 32 W/m² | - |
| 1778104446 | 15.56° C | 32% | 1017.7 hPa | 0 mm | - | 311 W/m² | - |
| 1778104142 | 15.56° C | 32% | 1017.8 hPa | 0 mm | - | 383 W/m² | - |
| 1778103839 | 16.11° C | 33% | 1017.7 hPa | 0 mm | - | 59 W/m² | - |
| 1778103537 | 16.11° C | 32% | 1017.7 hPa | 0 mm | - | 278 W/m² | - |
| 1778103234 | 16.11° C | 33% | 1017.7 hPa | 0 mm | - | 440 W/m² | - |
| 1778102931 | 15.56° C | 34% | 1017.8 hPa | 0 mm | - | 169 W/m² | - |
| 1778102627 | 15.56° C | 33% | 1017.8 hPa | 0 mm | - | 470 W/m² | - |
| 1778102322 | 15.56° C | 32% | 1017.8 hPa | 0 mm | - | 483 W/m² | - |
| 1778102018 | 15.56° C | 32% | 1018 hPa | 0 mm | - | 500 W/m² | - |
| 1778101716 | 15.56° C | 32% | 1017.9 hPa | 0 mm | - | 512 W/m² | - |
| 1778101412 | 15.56° C | 35% | 1017.8 hPa | 0 mm | - | 526 W/m² | - |
| 1778101110 | 15.56° C | 34% | 1018.1 hPa | 0 mm | - | 538 W/m² | - |
| 1778100806 | 15.56° C | 33% | 1018.3 hPa | 0 mm | - | 552 W/m² | - |
| 1778100497 | 15.56° C | 33% | 1018.2 hPa | 0 mm | - | 565 W/m² | - |
| 1778100195 | 15.56° C | 34% | 1018.4 hPa | 0 mm | - | 577 W/m² | - |
| 1778099892 | 15.56° C | 32% | 1018.6 hPa | 0 mm | - | 587 W/m² | - |
| 1778099589 | 15.56° C | 34% | 1018.6 hPa | 1.27 mm | - | 600 W/m² | - |
| 1778099286 | 16.11° C | 34% | 1018.7 hPa | 1.27 mm | - | 613 W/m² | - |
| 1778098983 | 15.56° C | 32% | 1018.7 hPa | 0 mm | - | 625 W/m² | - |
| 1778098680 | 15.56° C | 33% | 1018.6 hPa | 0 mm | - | 634 W/m² | - |
| 1778098377 | 15.56° C | 33% | 1018.7 hPa | 0 mm | - | 647 W/m² | - |
| 1778098074 | 15.56° C | 34% | 1018.5 hPa | 0 mm | - | 652 W/m² | - |
* Rain latest hour (hover to see other rain measurements)
** Current wind speed in m/s (hover to see current wind gust speed)